SCP
0 0 0 0 0 0 0 0 0 0 0 0 0 0 0 0 0 0 0 0 0 0 0 0 0 0 0 0 0 0 0 0 0 0 0 0 0 0 0 0 0 0 0
0 0 0 0 0 0 0 0 0 0 0 0 0 0 0 0 0 0 0 0 0 0 0 0 0 0 0 0 0 0 0 0 0 0 0 0 0 0 0 0 0 0 0
0 0 0 0 0 0 0 0 0 0 0 0 0 0 0 0 0 0 0 0 0 0 0 0 0 0 0 0 0 0 0 0 0 0 0 0 0 0 0 0 0 0 0
0 0 0 0 0 0 0 0 0 0 0 0 0 0 0 0 0 0 0 0 0 0 0 0 0 0 0 0 0 0 0 0 0 0 0 0 0 0 0 0 0 0 0
0 0 0 0 0 0 0 0 0 0 0 0 0 0 0 0 0 0 0 0 0 0 0 0 0 0 0 0 0 0 0 0 0 0 0 0 0 0 0 0 0 0 0
0 0 0 0 0 0 0 0 0 0 0 0 0 0 0 0 0 0 0 0 0 0 0 0 0 0 0 0 0 0 0 0 0 0 0 0 0 0 0 0 0 0 0
0 0 0 0 0 0 0 0 0 0 0 0 0 0 0 0 0 0 0 0 0 0 0 0 0 0 0 0 0 0 0 0 0 0 0 0 0 0 0 0 0 0 0
0 0 0 0 0 0 0 0 0 0 0 0 0 0 0 0 0 0 0 0 0 0 0 0 0 0 0 0 0 0 0 0 0 0 0 0 0 0 0 0 0 0 0
0 0 0 0 0 0 0 0 0 0 0 0 0 0 0 0 0 0 0 0 0 0 0 0 0 0 0 0 0 0 0 0 0 0 0 0 0 0 0 0 0 0 0
0 0 0 0 0 0 0 0 0 0 0 0 0 0 0 0 0 0 0 0 0 0 0 0 0 0 0 0 0 0 0 0 0 0 0 0 0 0 0 0 0 0 0
0 0 0 0 0 0 0 0 0 0 0 0 0 0 0 0 0 0 0 0 0 0 0 0 0 0 0 0 0 0 0 0 0 0 0 0 0 0 0 0 0 0 0
0 0 0 0 0 0 0 0 0 0 0 0 0 0 0 0 0 0 0 0 0 0 0 0 0 0 0 0 0 0 0 0 0 0 0 0 0 0 0 0 0 0 0
0 0 0 0 0 0 0 0 0 0 0 0 0 0 0 0 0 0 0 0 0 0 0 0 0 0 0 0 0 0 0 0 0 0 0 0 0 0 0 0 0 0 0
0 0 0 0 0 0 0 0 0 0 0 0 0 0 0 0 0 0 0 0 0 0 0 0 0 0 0 0 0 0 0 0 0 0 0 0 0 0 0 0 0 0 0
0 0 0 0 0 0 0 0 0 0 0 0 0 0 0 0 0 0 0 0 0 0 0 0 0 0 0 0 0 0 0 0 0 0 0 0 0 0 0 0 0 0 0
0 0 0 0 0 0 0 0 0 0 0 0 0 0 0 0 0 0 0 0 0 0 0 0 0 0 0 0 0 0 0 0 0 0 0 0 0 0 0 0 0 0 0
0 0 0 0 0 0 0 0 0 0 0 0 0 0 0 0 0 0 0 0 0 0 0 0 0 0 0 0 0 0 0 0 0 0 0 0 0 0 0 0 0 0 0
0 0 0 0 0 0 0 0 0 0 0 0 0 0 0 0 0 0 0 0 0 0 0 0 0 0 0 0 0 0 0 0 0 0 0 0 0 0 0 0 0 0 0
0 0 0 0 0 0 0 0 0 0 0 0 0 0 0 0 0 0 0 0 0 0 0 0 0 0 0 0 0 0 0 0 0 0 0 0 0 0 0 0 0 0 0
0 0 0 0 0 0 0 0 0 0 0 0 0 0 0 0 0 0 0 0 0 0 0 0 0 0 0 0 0 0 0 0 0 0 0 0 0 0 0 0 0 0 0
0 0 0 0 0 0 0 0 0 0 0 0 0 0 0 0 0 0 0 0 0 0 0 0 0 0 0 0 0 0 0 0 0 0 0 0 0 0 0 0 0 0 0
0 0 0 0 0 0 0 0 0 0 0 0 0 0 0 0 0 0 0 0 0 0 0 0 0 0 0 0 0 0 0 0 0 0 0 0 0 0 0 0 0 0 0
0 0 0 0 0 0 0 0 0 0 0 0 0 0 0 0 0 0 0 0 0 0 0 0 0 0 0 0 0 0 0 0 0 0 0 0 0 0 0 0 0 0 0
0 0 0 0 0 0 0 0 0 0 0 0 0 0 0 0 0 0 0 0 0 0 0 0 0 0 0 0 0 0 0 0 0 0 0 0 0 0 0 0 0 0 0
0 0 0 0 0 0 0 0 0 0 0 0 0 0 0 0 0 0 0 0 0 0 0 0 0 0 0 0 0 0 0 0 0 0 0 0 0 0 0 0 0 0 0
0 0 0 0 0 0 0 0 0 0 0 0 0 0 0 0 0 0 0 0 0 0 0 0 0 0 0 0 0 0 0 0 0 0 0 0 0 0 0 0 0 0 0
Wind_Speed
6 5 4 3 3 2 3 3 3 4 3 3 3 4 4 4 3 3 4 11 12 11 10 10 9 9 9 9 9 9 9 9 10 10 10 11 11 12 12 13 12 11 11
7 6 5 4 3 3 3 4 4 4 3 3 4 4 4 4 4 4 3 6 11 10 9 9 9 9 9 9 9 9 9 9 10 10 10 10 11 11 12 12 12 12 12
8 7 6 5 4 4 5 4 4 3 3 3 3 3 3 4 4 4 4 3 4 7 8 8 9 9 10 10 10 10 9 10 10 10 11 11 12 12 12 13 13 13 13
10 8 7 5 5 4 4 4 3 3 3 3 2 2 2 3 4 4 3 3 2 2 4 7 8 9 10 11 11 11 10 9 10 10 11 12 12 13 13 14 14 14 14
11 8 7 5 6 5 4 4 3 3 2 2 1 1 1 2 3 4 4 3 3 3 2 4 6 6 8 9 11 11 10 9 9 10 11 12 13 14 14 15 15 15 15
11 9 7 7 7 6 4 4 4 3 2 1 2 3 2 1 2 3 3 3 2 3 3 2 2 2 5 7 10 11 10 9 9 10 10 12 13 14 15 16 16 16 16
11 10 9 8 7 6 6 6 4 3 2 1 3 2 3 2 1 1 1 1 2 2 2 2 0 1 2 5 7 10 9 9 10 10 11 12 14 15 17 17 17 17 17
13 11 12 9 7 6 6 5 4 3 2 1 3 3 1 2 2 2 1 1 2 2 2 1 2 2 2 2 5 9 9 9 11 12 13 14 15 17 19 19 19 18 18
13 13 13 11 9 8 7 6 5 6 4 1 1 3 4 4 2 2 2 2 2 2 2 2 3 3 4 3 4 7 8 9 12 13 15 16 18 19 20 21 20 19 19
13 13 13 13 11 7 7 6 5 4 5 3 1 2 2 3 3 1 2 2 1 1 2 3 4 4 5 4 5 9 11 11 13 15 17 19 20 21 22 22 21 20 20
10 12 13 12 12 9 8 7 5 5 4 4 3 2 2 2 2 2 2 4 3 2 2 3 3 3 4 4 4 7 11 13 15 17 20 21 23 23 23 23 22 22 22
7 10 11 12 11 10 9 8 6 6 4 4 3 3 3 3 2 2 2 3 3 3 3 3 2 2 3 4 7 14 14 15 17 20 22 24 24 24 24 23 23 24 24
7 12 11 11 10 10 9 8 7 6 6 6 4 3 2 2 3 3 2 2 2 3 3 2 1 1 2 2 4 16 13 17 19 22 24 25 24 23 23 24 24 25 25
8 10 10 9 10 11 10 8 7 5 5 5 5 4 3 2 2 3 3 2 2 3 3 4 2 0 1 3 9 16 7 18 22 23 24 24 23 23 24 24 25 25 25
8 10 10 10 10 10 10 9 6 6 5 4 4 4 3 2 2 2 3 3 3 3 3 3 3 2 3 4 9 6 5 17 23 23 23 23 23 23 24 25 25 25 24
11 13 12 11 10 10 9 8 7 6 5 4 3 4 3 2 2 2 3 3 4 4 4 3 4 4 5 6 13 8 8 22 21 22 23 23 24 24 24 24 24 25 25
14 14 13 12 11 10 9 8 6 6 6 4 3 4 3 3 3 2 2 2 3 4 5 4 3 3 4 6 8 7 8 8 9 20 23 24 24 24 24 25 25 25 25
14 13 13 12 11 10 8 8 8 6 5 4 3 2 2 2 3 3 3 3 3 4 4 6 4 3 5 6 7 9 10 10 7 19 24 24 24 25 25 25 25 25 25
13 13 12 11 10 8 8 7 7 6 5 4 2 1 2 2 3 3 4 4 4 4 4 4 5 3 4 5 7 8 9 8 10 14 20 22 24 24 24 24 25 25 25
14 12 11 10 10 9 8 7 7 6 5 4 3 1 1 3 4 4 4 5 5 4 4 4 5 5 5 6 5 6 9 6 8 10 15 17 20 22 23 25 25 26 26
13 13 13 11 10 8 7 7 6 6 4 3 2 2 2 4 5 5 4 4 4 3 4 4 5 6 6 6 7 6 10 9 8 9 8 7 9 8 11 18 22 24 26
13 13 12 10 8 7 11 11 7 4 3 2 2 3 4 4 6 8 10 10 10 6 4 4 5 8 9 8 7 9 10 11 9 3 5 9 8 10 8 7 19 26 27
13 12 10 9 8 8 10 9 8 4 3 2 2 3 3 4 6 4 8 12 11 13 14 10 9 10 11 9 9 10 10 11 12 8 9 14 8 11 9 12 24 27 28
10 9 9 8 6 6 8 7 8 4 3 2 2 1 2 4 6 7 5 4 4 6 10 9 8 10 10 9 10 11 11 11 11 9 8 11 10 11 11 8 21 27 27
9 7 6 6 5 5 7 6 7 2 1 1 2 3 4 4 11 14 7 5 7 7 13 18 19 17 20 22 17 8 7 9 13 10 5 7 7 9 10 10 14 22 23
7 6 5 4 4 3 4 4 5 2 1 1 2 3 7 9 13 14 7 6 8 8 8 9 10 13 12 13 17 8 5 9 11 9 3 4 5 7 9 5 6 7 12
Wind_Direction
176 174 172 169 169 150 138 125 114 107 92 74 71 88 106 123 103 78 77 89 87 84 78 70 61 51 43 36 32 27 21 19 17 14 10 7 4 359 354 350 345 343 340
175 175 171 167 161 149 137 125 120 108 82 71 67 78 103 128 118 102 85 90 94 90 81 67 56 44 34 27 23 21 18 16 12 8 3 0 358 354 348 342 337 331 327
172 169 164 159 151 138 125 109 100 88 77 64 58 62 100 131 138 124 112 102 100 98 91 71 56 45 33 22 15 13 15 13 9 5 1 358 354 349 344 339 333 327 321
165 158 156 152 145 132 120 114 106 86 67 62 50 30 81 128 144 151 143 141 129 112 95 86 65 49 32 18 8 2 4 4 3 1 358 355 352 347 342 337 331 325 319
160 155 153 147 140 125 121 120 96 106 83 61 38 58 71 131 148 159 169 177 167 144 121 95 78 57 34 19 8 355 351 354 357 355 352 349 346 342 337 331 327 322 317
159 151 148 146 138 127 124 119 112 90 91 86 59 55 35 67 127 157 180 181 173 155 136 115 81 34 26 13 4 350 341 344 346 344 341 339 338 336 331 325 321 316 313
160 155 151 149 146 143 147 138 118 104 73 75 89 48 12 24 65 110 164 150 142 136 128 130 155 338 333 355 351 340 331 329 333 333 329 328 330 330 325 320 316 312 309
164 161 156 158 153 141 144 147 135 123 93 65 124 115 58 337 336 11 21 129 104 88 76 49 346 321 297 297 300 321 318 315 320 320 317 318 322 324 320 315 312 308 307
169 165 162 157 155 154 162 162 151 142 142 86 87 140 152 205 274 326 8 51 80 82 53 16 4 340 309 288 283 292 294 300 307 309 310 313 316 317 314 311 309 308 307
169 165 162 159 158 156 159 163 154 147 139 143 109 74 123 145 155 292 323 343 6 69 24 356 345 335 325 312 302 299 298 298 300 304 308 310 311 311 310 307 306 306 307
167 165 163 159 159 157 158 152 145 142 137 147 151 141 116 86 111 150 271 314 329 321 336 327 332 344 344 354 341 332 324 315 310 309 309 308 309 308 307 306 306 306 305
162 166 165 161 159 156 155 150 142 142 137 134 135 138 146 149 161 158 214 267 285 293 303 300 324 353 9 16 358 348 338 328 319 313 309 307 307 307 307 307 306 304 301
170 174 167 162 157 152 146 143 138 140 140 139 142 139 139 147 143 147 169 243 277 291 302 305 267 355 40 355 334 335 332 324 317 311 307 305 305 306 306 304 301 298 296
168 162 157 155 149 147 145 143 137 137 137 141 146 144 143 154 147 154 164 173 285 297 289 277 296 266 315 330 323 327 322 319 314 308 305 304 305 304 301 298 296 295 293
145 147 145 146 146 145 144 143 141 138 141 147 151 152 147 153 147 151 154 159 182 259 278 271 287 293 326 316 310 311 306 310 307 305 304 303 301 300 298 296 294 293 293
149 148 146 147 145 142 142 139 136 139 143 149 153 154 158 163 162 164 169 177 180 199 245 250 250 276 298 306 308 313 296 306 307 303 300 300 299 297 296 295 296 295 294
149 151 150 149 148 146 143 139 138 147 149 151 153 169 190 182 185 195 197 200 207 200 245 260 246 267 278 284 297 290 289 285 287 298 299 299 298 297 297 297 295 293 291
147 147 145 145 146 144 141 141 143 146 146 149 155 168 205 204 211 213 212 222 228 221 231 269 267 266 268 278 282 286 296 293 286 295 297 298 298 297 296 295 294 294 294
138 139 139 140 137 132 125 123 122 118 112 110 112 163 235 223 235 234 232 235 238 244 236 262 280 267 268 277 284 282 282 280 284 291 297 297 296 296 296 296 297 298 297
132 129 125 119 115 111 108 107 106 101 94 85 71 45 275 239 238 241 240 241 244 254 260 267 279 283 278 277 278 289 296 277 280 288 287 288 291 295 295 295 295 295 293
116 113 108 103 102 102 105 105 99 94 86 68 34 348 301 277 266 264 255 242 237 246 261 269 283 293 295 298 296 291 298 298 284 273 272 274 280 277 281 286 289 288 286
102 101 101 104 99 100 107 103 99 90 80 52 359 333 312 301 302 315 310 302 296 289 289 280 286 293 295 291 290 292 297 301 298 266 279 287 279 279 276 265 280 284 285
96 95 96 97 98 106 110 110 107 104 80 46 12 356 350 342 348 310 300 302 303 303 301 298 292 286 288 287 286 288 287 289 293 296 295 290 281 280 276 279 285 287 288
96 97 99 106 114 130 130 124 111 97 83 57 37 17 319 312 312 302 278 277 275 281 286 283 268 270 273 273 269 284 291 292 285 280 272 282 285 280 281 274 283 284 285
98 101 114 132 142 148 145 134 127 126 110 342 310 317 328 315 311 311 309 296 286 279 291 292 291 292 295 300 301 298 293 296 296 292 270 268 279 288 282 271 272 279 284
113 119 121 132 147 170 174 151 142 164 210 293 307 314 326 320 310 311 303 289 289 284 280 287 293 295 293 290 296 287 274 286 293 294 252 256 283 304 295 255 248 265 276